,,Stat6,,Stat2,,Stat8,,Stat9,,Stat10,,Wind1,,Wind1,
time,status,PA1M_AVG,status,PR1M_SUM,status,RH1M_AVG,status,SR1M_AVG,status,TA1M_AVG,status,W1dAve1m,status,W1sAve1m,
2009-08-02, 00:00:00,VALID,917.738,VALID,0,VALID,100,VALID,0,VALID,17.8573,VALID,96,VALID,0,
2009-08-02, 00:01:00,VALID,917.71,VALID,0,VALID,100,VALID,0,VALID,17.805,VALID,127,VALID,0,
2009-08-02, 00:02:00,VALID,917.682,VALID,0,VALID,100,VALID,0,VALID,17.7501,VALID,138,VALID,0,
2009-08-02, 00:03:00,VALID,917.661,VALID,0,VALID,100,VALID,0,VALID,17.7144,VALID,145,VALID,0,
2009-08-02, 00:04:00,VALID,917.646,VALID,0,VALID,100,VALID,0.0169808,VALID,17.7045,VALID,141,VALID,0,
2009-08-02, 00:05:00,VALID,917.638,VALID,0,VALID,100,VALID,0,VALID,17.7142,VALID,141,VALID,0,
2009-08-02, 00:06:00,VALID,917.639,VALID,0,VALID,100,VALID,0,VALID,17.7531,VALID,138,VALID,0,
2009-08-02, 00:07:00,VALID,917.645,VALID,0,VALID,100,VALID,0,VALID,17.7112,VALID,138,VALID,0,
2009-08-02, 00:08:00,VALID,917.628,VALID,0,VALID,100,VALID,0,VALID,17.6788,VALID,134,VALID,0,
2009-08-02, 00:09:00,VALID,917.6,VALID,0,VALID,100,VALID,-0.0169808,VALID,17.6012,VALID,134,VALID,0,
2009-08-02, 00:10:00,VALID,917.581,VALID,0,VALID,100,VALID,-0.0169808,VALID,17.5653,VALID,132,VALID,0.047247,
2009-08-02, 00:11:00,VALID,917.569,VALID,0,VALID,100,VALID,-0.0169808,VALID,17.6526,VALID,127,VALID,0.00390625,
2009-08-02, 00:12:00,VALID,917.575,VALID,0,VALID,100,VALID,0.0169808,VALID,17.7397,VALID,124,VALID,0.127287,
2009-08-02, 00:13:00,VALID,917.571,VALID,0,VALID,100,VALID,0,VALID,17.7207,VALID,128,VALID,0,
2009-08-02, 00:14:00,VALID,917.564,VALID,0,VALID,100,VALID,-0.0169808,VALID,17.6494,VALID,134,VALID,0,
2009-08-02, 00:15:00,VALID,917.553,VALID,0,VALID,100,VALID,0,VALID,17.7077,VALID,132,VALID,0,
2009-08-02, 00:16:00,VALID,917.564,VALID,0,VALID,100,VALID,0.0339617,VALID,17.7788,VALID,128,VALID,0,
2009-08-02, 00:17:00,VALID,917.573,VALID,0,VALID,100,VALID,0.0339617,VALID,17.8113,VALID,122,VALID,0,
2009-08-02, 00:18:00,VALID,917.588,VALID,0,VALID,100,VALID,0.0169808,VALID,17.8379,VALID,122,VALID,0,
2009-08-02, 00:19:00,VALID,917.576,VALID,0,VALID,100,VALID,0.0169808,VALID,17.8476,VALID,122,VALID,0,
2009-08-02, 00:20:00,VALID,917.555,VALID,0,VALID,100,VALID,0.0169808,VALID,17.7886,VALID,126,VALID,0,
2009-08-02, 00:21:00,VALID,917.511,VALID,0,VALID,100,VALID,0.0509425,VALID,17.711,VALID,128,VALID,0,
2009-08-02, 00:22:00,VALID,917.475,VALID,0,VALID,100,VALID,0.0339617,VALID,17.7561,VALID,128,VALID,0,
2009-08-02, 00:23:00,VALID,917.457,VALID,0,VALID,100,VALID,0,VALID,17.7304,VALID,123,VALID,0,
2009-08-02, 00:24:00,VALID,917.443,VALID,0,VALID,100,VALID,0,VALID,17.685,VALID,122,VALID,0,
2009-08-02, 00:25:00,VALID,917.439,VALID,0,VALID,100,VALID,0,VALID,17.6883,VALID,122,VALID,0,
2009-08-02, 00:26:00,VALID,917.427,VALID,0,VALID,100,VALID,0,VALID,17.5132,VALID,121,VALID,0,
2009-08-02, 00:27:00,VALID,917.443,VALID,0,VALID,100,VALID,0,VALID,17.4226,VALID,121,VALID,0,
2009-08-02, 00:28:00,VALID,917.44,VALID,0,VALID,100,VALID,0.0169808,VALID,17.3673,VALID,121,VALID,0,
2009-08-02, 00:29:00,VALID,917.438,VALID,0,VALID,100,VALID,0.0169808,VALID,17.2929,VALID,121,VALID,0,
2009-08-02, 00:30:00,VALID,917.414,VALID,0,VALID,100,VALID,0,VALID,17.3161,VALID,121,VALID,0,
2009-08-02, 00:31:00,VALID,917.389,VALID,0,VALID,100,VALID,0,VALID,17.3837,VALID,121,VALID,0,
2009-08-02, 00:32:00,VALID,917.373,VALID,0,VALID,100,VALID,0,VALID,17.4451,VALID,121,VALID,0,
2009-08-02, 00:33:00,VALID,917.364,VALID,0,VALID,100,VALID,0,VALID,17.4872,VALID,121,VALID,0,
2009-08-02, 00:34:00,VALID,917.347,VALID,0,VALID,100,VALID,0.0169808,VALID,17.5556,VALID,121,VALID,0,
2009-08-02, 00:35:00,VALID,917.335,VALID,0,VALID,100,VALID,0.0339617,VALID,17.5197,VALID,121,VALID,0,
2009-08-02, 00:36:00,VALID,917.341,VALID,0,VALID,100,VALID,0,VALID,17.5553,VALID,121,VALID,0,
2009-08-02, 00:37:00,VALID,917.346,VALID,0,VALID,100,VALID,0.0169808,VALID,17.5942,VALID,121,VALID,0,
2009-08-02, 00:38:00,VALID,917.329,VALID,0,VALID,100,VALID,0.0339617,VALID,17.6074,VALID,121,VALID,0,
2009-08-02, 00:39:00,VALID,917.317,VALID,0,VALID,100,VALID,-0.0169808,VALID,17.5748,VALID,121,VALID,0,
2009-08-02, 00:40:00,VALID,917.3,VALID,0,VALID,100,VALID,0.0169808,VALID,17.5326,VALID,121,VALID,0,
2009-08-02, 00:41:00,VALID,917.309,VALID,0,VALID,100,VALID,0,VALID,17.5361,VALID,121,VALID,0,
2009-08-02, 00:42:00,VALID,917.305,VALID,0,VALID,100,VALID,0.0339617,VALID,17.5037,VALID,121,VALID,0,
2009-08-02, 00:43:00,VALID,917.311,VALID,0,VALID,100,VALID,-0.0169808,VALID,17.5229,VALID,121,VALID,0,
2009-08-02, 00:44:00,VALID,917.335,VALID,0,VALID,100,VALID,0,VALID,17.5458,VALID,121,VALID,0,
2009-08-02, 00:45:00,VALID,917.324,VALID,0,VALID,100,VALID,-0.0169808,VALID,17.5553,VALID,121,VALID,0,
2009-08-02, 00:46:00,VALID,917.321,VALID,0,VALID,100,VALID,0.0169808,VALID,17.5516,VALID,121,VALID,0,
2009-08-02, 00:47:00,VALID,917.311,VALID,0,VALID,100,VALID,0.0169808,VALID,17.5553,VALID,121,VALID,0,
2009-08-02, 00:48:00,VALID,917.305,VALID,0,VALID,100,VALID,0.0169808,VALID,17.5519,VALID,121,VALID,0,
2009-08-02, 00:49:00,VALID,917.301,VALID,0,VALID,100,VALID,0,VALID,17.5584,VALID,121,VALID,0,
2009-08-02, 00:50:00,VALID,917.307,VALID,0,VALID,100,VALID,0.0679233,VALID,17.5903,VALID,121,VALID,0,
2009-08-02, 00:51:00,VALID,917.302,VALID,0,VALID,100,VALID,0.0849042,VALID,17.6167,VALID,121,VALID,0,
2009-08-02, 00:52:00,VALID,917.319,VALID,0,VALID,100,VALID,0.0509425,VALID,17.6065,VALID,121,VALID,0,
2009-08-02, 00:53:00,VALID,917.32,VALID,0,VALID,100,VALID,0.0679233,VALID,17.5683,VALID,121,VALID,0,
2009-08-02, 00:54:00,VALID,917.341,VALID,0,VALID,100,VALID,0.101885,VALID,17.4892,VALID,121,VALID,0,
2009-08-02, 00:55:00,VALID,917.361,VALID,0,VALID,100,VALID,0.0169808,VALID,17.4317,VALID,120,VALID,0,
2009-08-02, 00:56:00,VALID,917.369,VALID,0,VALID,100,VALID,0.0339617,VALID,17.4775,VALID,106,VALID,0,
2009-08-02, 00:57:00,VALID,917.375,VALID,0,VALID,100,VALID,0,VALID,17.5203,VALID,11,VALID,0.0571733,
2009-08-02, 00:58:00,VALID,917.374,VALID,0,VALID,100,VALID,-0.0169808,VALID,17.527,VALID,11,VALID,0,
2009-08-02, 00:59:00,VALID,917.374,VALID,0,VALID,100,VALID,-0.0679233,VALID,17.5432,VALID,15,VALID,0.0121951,
2009-08-02, 01:00:00,VALID,917.377,VALID,0,VALID,100,VALID,-0.0339617,VALID,17.5662,VALID,19,VALID,0.0535714,
2009-08-02, 01:01:00,VALID,917.374,VALID,0,VALID,100,VALID,-0.101885,VALID,17.5532,VALID,19,VALID,0,
2009-08-02, 01:02:00,VALID,917.372,VALID,0,VALID,100,VALID,-0.0849042,VALID,17.5467,VALID,10,VALID,0,
2009-08-02, 01:03:00,VALID,917.361,VALID,0,VALID,100,VALID,-0.0339617,VALID,17.5532,VALID,18,VALID,0,
2009-08-02, 01:04:00,VALID,917.35,VALID,0,VALID,100,VALID,-0.0509425,VALID,17.5727,VALID,23,VALID,0,
2009-08-02, 01:05:00,VALID,917.326,VALID,0,VALID,100,VALID,-0.0339617,VALID,17.5791,VALID,29,VALID,0,
2009-08-02, 01:06:00,VALID,917.306,VALID,0,VALID,100,VALID,-0.0509425,VALID,17.6049,VALID,32,VALID,0,
2009-08-02, 01:07:00,VALID,917.277,VALID,0,VALID,100,VALID,-0.0339617,VALID,17.6245,VALID,32,VALID,0,
2009-08-02, 01:08:00,VALID,917.251,VALID,0,VALID,100,VALID,-0.101885,VALID,17.6371,VALID,32,VALID,0,
2009-08-02, 01:09:00,VALID,917.208,VALID,0,VALID,100,VALID,-0.0679233,VALID,17.6669,VALID,32,VALID,0,
2009-08-02, 01:10:00,VALID,917.197,VALID,0,VALID,100,VALID,-0.0339617,VALID,17.6764,VALID,32,VALID,0,
2009-08-02, 01:11:00,VALID,917.179,VALID,0,VALID,100,VALID,-0.0339617,VALID,17.6693,VALID,32,VALID,0,
2009-08-02, 01:12:00,VALID,917.157,VALID,0,VALID,100,VALID,0,VALID,17.6825,VALID,32,VALID,0,
2009-08-02, 01:13:00,VALID,917.147,VALID,0,VALID,100,VALID,-0.0169808,VALID,17.6662,VALID,31,VALID,0,
2009-08-02, 01:14:00,VALID,917.118,VALID,0,VALID,100,VALID,-0.0339617,VALID,17.6762,VALID,32,VALID,0,
2009-08-02, 01:15:00,VALID,917.108,VALID,0,VALID,100,VALID,-0.0339617,VALID,17.6635,VALID,31,VALID,0,
2009-08-02, 01:16:00,VALID,917.104,VALID,0,VALID,100,VALID,-0.0339617,VALID,17.6403,VALID,32,VALID,0,
2009-08-02, 01:17:00,VALID,917.105,VALID,0,VALID,100,VALID,-0.0169808,VALID,17.6273,VALID,32,VALID,0,
2009-08-02, 01:18:00,VALID,917.101,VALID,0,VALID,100,VALID,-0.0169808,VALID,17.6012,VALID,32,VALID,0,
2009-08-02, 01:19:00,VALID,917.082,VALID,0,VALID,100,VALID,-0.0339617,VALID,17.5949,VALID,32,VALID,0,
2009-08-02, 01:20:00,VALID,917.062,VALID,0,VALID,100,VALID,-0.0679233,VALID,17.5528,VALID,32,VALID,0,
2009-08-02, 01:21:00,VALID,917.035,VALID,0,VALID,99.9451,VALID,0,VALID,17.5303,VALID,32,VALID,0,
2009-08-02, 01:22:00,VALID,917.01,VALID,0,VALID,99.968,VALID,-0.0849042,VALID,17.4944,VALID,32,VALID,0,
2009-08-02, 01:23:00,VALID,916.992,VALID,0,VALID,99.999,VALID,-0.0339617,VALID,17.4881,VALID,32,VALID,0,
2009-08-02, 01:24:00,VALID,916.985,VALID,0,VALID,100,VALID,-0.0339617,VALID,17.4786,VALID,32,VALID,0,
2009-08-02, 01:25:00,VALID,916.967,VALID,0,VALID,100,VALID,-0.0509425,VALID,17.4488,VALID,32,VALID,0,
2009-08-02, 01:26:00,VALID,916.955,VALID,0,VALID,99.968,VALID,-0.0339617,VALID,17.4194,VALID,32,VALID,0,
2009-08-02, 01:27:00,VALID,916.945,VALID,0,VALID,99.8795,VALID,-0.0509425,VALID,17.3809,VALID,32,VALID,0,
2009-08-02, 01:28:00,VALID,916.945,VALID,0,VALID,99.7269,VALID,-0.0509425,VALID,17.3517,VALID,32,VALID,0,
2009-08-02, 01:29:00,VALID,916.967,VALID,0,VALID,99.5527,VALID,-0.0339617,VALID,17.2938,VALID,32,VALID,0,
2009-08-02, 01:30:00,VALID,916.96,VALID,0,VALID,99.4268,VALID,-0.0509425,VALID,17.2419,VALID,32,VALID,0,
2009-08-02, 01:31:00,VALID,916.965,VALID,0,VALID,99.4318,VALID,-0.0849042,VALID,17.1931,VALID,32,VALID,0,
2009-08-02, 01:32:00,VALID,916.938,VALID,0,VALID,99.4827,VALID,-0.0679233,VALID,17.1542,VALID,32,VALID,0,
2009-08-02, 01:33:00,VALID,916.932,VALID,0,VALID,99.5603,VALID,-0.0679233,VALID,17.1384,VALID,32,VALID,0,
2009-08-02, 01:34:00,VALID,916.9,VALID,0,VALID,99.9069,VALID,-0.0679233,VALID,17.1481,VALID,32,VALID,0,
2009-08-02, 01:35:00,VALID,916.875,VALID,0,VALID,100,VALID,-0.0679233,VALID,17.1507,VALID,32,VALID,0,
2009-08-02, 01:36:00,VALID,916.83,VALID,0,VALID,100,VALID,-0.0509425,VALID,17.1503,VALID,32,VALID,0,
2009-08-02, 01:37:00,VALID,916.802,VALID,0,VALID,100,VALID,0,VALID,17.1829,VALID,32,VALID,0,
2009-08-02, 01:38:00,VALID,916.772,VALID,0,VALID,100,VALID,-0.0509425,VALID,17.1706,VALID,32,VALID,0,
2009-08-02, 01:39:00,VALID,916.75,VALID,0,VALID,100,VALID,-0.0339617,VALID,17.1475,VALID,32,VALID,0,
2009-08-02, 01:40:00,VALID,916.734,VALID,0,VALID,100,VALID,-0.0509425,VALID,17.157,VALID,118,VALID,0,
2009-08-02, 01:41:00,VALID,916.733,VALID,0,VALID,100,VALID,-0.0339617,VALID,17.1312,VALID,158,VALID,0,
2009-08-02, 01:42:00,VALID,916.725,VALID,0,VALID,100,VALID,-0.0339617,VALID,17.1317,VALID,158,VALID,0,
2009-08-02, 01:43:00,VALID,916.72,VALID,0,VALID,100,VALID,-0.0509425,VALID,17.0986,VALID,158,VALID,0,
2009-08-02, 01:44:00,VALID,916.72,VALID,0,VALID,100,VALID,-0.0339617,VALID,17.0016,VALID,158,VALID,0,
2009-08-02, 01:45:00,VALID,916.717,VALID,0,VALID,100,VALID,-0.0339617,VALID,16.9501,VALID,158,VALID,0,
2009-08-02, 01:46:00,VALID,916.709,VALID,0,VALID,100,VALID,-0.0679233,VALID,16.8848,VALID,158,VALID,0,
2009-08-02, 01:47:00,VALID,916.704,VALID,0,VALID,100,VALID,-0.0509425,VALID,16.82,VALID,158,VALID,0,
2009-08-02, 01:48:00,VALID,916.69,VALID,0,VALID,100,VALID,-0.0169808,VALID,16.7809,VALID,158,VALID,0,
2009-08-02, 01:49:00,VALID,916.7,VALID,0,VALID,100,VALID,0,VALID,16.8036,VALID,153,VALID,0,
2009-08-02, 01:50:00,VALID,916.719,VALID,0,VALID,100,VALID,-0.0509425,VALID,16.8907,VALID,149,VALID,0,
2009-08-02, 01:51:00,VALID,916.708,VALID,0,VALID,100,VALID,0,VALID,17.018,VALID,141,VALID,0,
2009-08-02, 01:52:00,VALID,916.734,VALID,0,VALID,100,VALID,-0.0169808,VALID,17.0759,VALID,139,VALID,0,
2009-08-02, 01:53:00,VALID,916.753,VALID,0,VALID,100,VALID,-0.0169808,VALID,16.9588,VALID,139,VALID,0,
2009-08-02, 01:54:00,VALID,916.752,VALID,0,VALID,100,VALID,-0.0169808,VALID,16.8976,VALID,139,VALID,0,
2009-08-02, 01:55:00,VALID,916.761,VALID,0,VALID,100,VALID,-0.0339617,VALID,16.946,VALID,139,VALID,0,
2009-08-02, 01:56:00,VALID,916.772,VALID,0,VALID,100,VALID,-0.0339617,VALID,16.9138,VALID,139,VALID,0,
2009-08-02, 01:57:00,VALID,916.747,VALID,0,VALID,100,VALID,0,VALID,16.8838,VALID,139,VALID,0,
2009-08-02, 01:58:00,VALID,916.717,VALID,0,VALID,100,VALID,0.0339617,VALID,16.8481,VALID,139,VALID,0,
2009-08-02, 01:59:00,VALID,916.702,VALID,0,VALID,100,VALID,0.0679233,VALID,16.7632,VALID,139,VALID,0,
2009-08-02, 02:00:00,VALID,916.677,VALID,0,VALID,100,VALID,0.0169808,VALID,16.7118,VALID,139,VALID,0,
2009-08-02, 02:01:00,VALID,916.679,VALID,0,VALID,100,VALID,0.0679233,VALID,16.7144,VALID,139,VALID,0,
2009-08-02, 02:02:00,VALID,916.669,VALID,0,VALID,100,VALID,0.0509425,VALID,16.8248,VALID,139,VALID,0,
2009-08-02, 02:03:00,VALID,916.645,VALID,0,VALID,100,VALID,0.0339617,VALID,16.9382,VALID,144,VALID,0,
2009-08-02, 02:04:00,VALID,916.622,VALID,0,VALID,100,VALID,0,VALID,16.9676,VALID,145,VALID,0,
2009-08-02, 02:05:00,VALID,916.607,VALID,0,VALID,100,VALID,0.0339617,VALID,16.919,VALID,145,VALID,0,
2009-08-02, 02:06:00,VALID,916.582,VALID,0,VALID,100,VALID,0.0509425,VALID,16.8868,VALID,145,VALID,0,
2009-08-02, 02:07:00,VALID,916.558,VALID,0,VALID,100,VALID,0.0339617,VALID,16.8319,VALID,145,VALID,0,
2009-08-02, 02:08:00,VALID,916.55,VALID,0,VALID,100,VALID,0.0169808,VALID,16.8025,VALID,149,VALID,0,
2009-08-02, 02:09:00,VALID,916.522,VALID,0,VALID,100,VALID,0.0169808,VALID,16.8414,VALID,157,VALID,0,
2009-08-02, 02:10:00,VALID,916.501,VALID,0,VALID,100,VALID,0,VALID,16.9452,VALID,159,VALID,0.158288,
2009-08-02, 02:11:00,VALID,916.474,VALID,0,VALID,100,VALID,0.0169808,VALID,16.9808,VALID,153,VALID,0.0632267,
2009-08-02, 02:12:00,VALID,916.461,VALID,0,VALID,100,VALID,-0.0339617,VALID,16.9912,VALID,156,VALID,0.748094,
2009-08-02, 02:13:00,VALID,916.447,VALID,0,VALID,100,VALID,-0.0849042,VALID,16.9888,VALID,152,VALID,0,
2009-08-02, 02:14:00,VALID,916.425,VALID,0,VALID,100,VALID,-0.101885,VALID,16.956,VALID,156,VALID,0,
2009-08-02, 02:15:00,VALID,916.437,VALID,0,VALID,100,VALID,-0.101885,VALID,16.9101,VALID,155,VALID,0,
2009-08-02, 02:16:00,VALID,916.436,VALID,0,VALID,100,VALID,-0.101885,VALID,16.8652,VALID,155,VALID,0,
2009-08-02, 02:17:00,VALID,916.437,VALID,0,VALID,100,VALID,-0.101885,VALID,16.8133,VALID,150,VALID,0,
2009-08-02, 02:18:00,VALID,916.432,VALID,0,VALID,100,VALID,-0.0509425,VALID,16.7876,VALID,146,VALID,0,
2009-08-02, 02:19:00,VALID,916.421,VALID,0,VALID,100,VALID,-0.0849042,VALID,16.7746,VALID,142,VALID,0,
2009-08-02, 02:20:00,VALID,916.406,VALID,0,VALID,100,VALID,-0.0849042,VALID,16.7843,VALID,142,VALID,0,
2009-08-02, 02:21:00,VALID,916.399,VALID,0,VALID,100,VALID,-0.101885,VALID,16.7975,VALID,142,VALID,0,
2009-08-02, 02:22:00,VALID,916.383,VALID,0,VALID,100,VALID,-0.0679233,VALID,16.7809,VALID,142,VALID,0,
2009-08-02, 02:23:00,VALID,916.379,VALID,0,VALID,100,VALID,-0.0679233,VALID,16.7128,VALID,142,VALID,0,
2009-08-02, 02:24:00,VALID,916.38,VALID,0,VALID,100,VALID,-0.0679233,VALID,16.6421,VALID,142,VALID,0,
2009-08-02, 02:25:00,VALID,916.401,VALID,0,VALID,100,VALID,-0.0849042,VALID,16.6514,VALID,142,VALID,0,
2009-08-02, 02:26:00,VALID,916.432,VALID,0,VALID,100,VALID,-0.0509425,VALID,16.7294,VALID,142,VALID,0,
2009-08-02, 02:27:00,VALID,916.452,VALID,0,VALID,100,VALID,-0.0849042,VALID,16.8688,VALID,142,VALID,0,
2009-08-02, 02:28:00,VALID,916.47,VALID,0,VALID,100,VALID,-0.101885,VALID,16.9268,VALID,142,VALID,0,
2009-08-02, 02:29:00,VALID,916.462,VALID,0,VALID,100,VALID,-0.101885,VALID,16.8397,VALID,142,VALID,0,
2009-08-02, 02:30:00,VALID,916.454,VALID,0,VALID,100,VALID,-0.101885,VALID,16.8073,VALID,142,VALID,0,
2009-08-02, 02:31:00,VALID,916.431,VALID,0,VALID,100,VALID,-0.118866,VALID,16.8818,VALID,141,VALID,0,
2009-08-02, 02:32:00,VALID,916.412,VALID,0,VALID,100,VALID,-0.101885,VALID,17.0016,VALID,140,VALID,0,
2009-08-02, 02:33:00,VALID,916.383,VALID,0,VALID,100,VALID,-0.135847,VALID,17.0536,VALID,140,VALID,0,
2009-08-02, 02:34:00,VALID,916.353,VALID,0,VALID,100,VALID,-0.101885,VALID,17.0958,VALID,135,VALID,0.00360577,
2009-08-02, 02:35:00,VALID,916.329,VALID,0,VALID,100,VALID,-0.0679233,VALID,17.1276,VALID,121,VALID,0,
2009-08-02, 02:36:01,VALID,916.287,VALID,0,VALID,100,VALID,-0.101885,VALID,17.1537,VALID,123,VALID,0.00133384,
2009-08-02, 02:37:00,VALID,916.247,VALID,0,VALID,100,VALID,-0.0679233,VALID,17.1602,VALID,121,VALID,0,
2009-08-02, 02:38:00,VALID,916.23,VALID,0,VALID,100,VALID,-0.0849042,VALID,17.1444,VALID,121,VALID,0,
2009-08-02, 02:39:00,VALID,916.21,VALID,0,VALID,100,VALID,-0.0849042,VALID,17.083,VALID,122,VALID,0,
2009-08-02, 02:40:00,VALID,916.209,VALID,0,VALID,100,VALID,-0.0849042,VALID,17.0372,VALID,122,VALID,0,
2009-08-02, 02:41:00,VALID,916.214,VALID,0,VALID,100,VALID,-0.101885,VALID,16.9333,VALID,122,VALID,0,
2009-08-02, 02:42:00,VALID,916.22,VALID,0,VALID,100,VALID,-0.101885,VALID,16.9104,VALID,122,VALID,0,
2009-08-02, 02:43:01,VALID,916.222,VALID,0,VALID,100,VALID,-0.0849042,VALID,16.9268,VALID,122,VALID,0,
2009-08-02, 02:44:00,VALID,916.227,VALID,0,VALID,100,VALID,-0.0849042,VALID,16.9134,VALID,122,VALID,0,
2009-08-02, 02:45:01,VALID,916.227,VALID,0,VALID,100,VALID,-0.0679233,VALID,16.9037,VALID,122,VALID,0,
2009-08-02, 02:46:00,VALID,916.218,VALID,0,VALID,100,VALID,-0.0509425,VALID,16.8555,VALID,122,VALID,0,
2009-08-02, 02:47:00,VALID,916.21,VALID,0,VALID,100,VALID,-0.0849042,VALID,16.7547,VALID,122,VALID,0,
2009-08-02, 02:48:00,VALID,916.198,VALID,0,VALID,100,VALID,-0.0339617,VALID,16.6994,VALID,122,VALID,0,
2009-08-02, 02:49:00,VALID,916.18,VALID,0,VALID,100,VALID,-0.0339617,VALID,16.6089,VALID,122,VALID,0,
2009-08-02, 02:50:00,VALID,916.168,VALID,0,VALID,100,VALID,-0.0509425,VALID,16.5793,VALID,122,VALID,0,
2009-08-02, 02:51:00,VALID,916.17,VALID,0,VALID,100,VALID,-0.0339617,VALID,16.6089,VALID,122,VALID,0,
2009-08-02, 02:52:00,VALID,916.155,VALID,0,VALID,100,VALID,-0.0509425,VALID,16.4956,VALID,116,VALID,0,
2009-08-02, 02:53:00,VALID,916.14,VALID,0,VALID,100,VALID,-0.0339617,VALID,16.4664,VALID,112,VALID,0,
2009-08-02, 02:54:00,VALID,916.139,VALID,0,VALID,100,VALID,-0.0849042,VALID,16.366,VALID,108,VALID,0,
2009-08-02, 02:55:01,VALID,916.125,VALID,0,VALID,100,VALID,-0.0169808,VALID,16.3005,VALID,79,VALID,0,
2009-08-02, 02:56:00,VALID,916.123,VALID,0,VALID,100,VALID,-0.0849042,VALID,16.4889,VALID,79,VALID,0,
2009-08-02, 02:57:00,VALID,916.128,VALID,0,VALID,100,VALID,0.0339617,VALID,16.6986,VALID,79,VALID,0,
2009-08-02, 02:58:01,VALID,916.122,VALID,0,VALID,100,VALID,0.0509425,VALID,16.7829,VALID,79,VALID,0,
2009-08-02, 02:59:00,VALID,916.126,VALID,0,VALID,100,VALID,0.0169808,VALID,16.825,VALID,79,VALID,0,
2009-08-02, 03:00:00,VALID,916.129,VALID,0,VALID,100,VALID,0.0169808,VALID,16.9255,VALID,79,VALID,0,
2009-08-02, 03:01:01,VALID,916.127,VALID,0,VALID,100,VALID,0.0339617,VALID,16.9836,VALID,79,VALID,0,
2009-08-02, 03:02:00,VALID,916.135,VALID,0,VALID,100,VALID,0.0509425,VALID,17.0744,VALID,79,VALID,0,
2009-08-02, 03:03:00,VALID,916.138,VALID,0,VALID,100,VALID,0.0679233,VALID,17.1031,VALID,79,VALID,0,
2009-08-02, 03:04:00,VALID,916.149,VALID,0,VALID,100,VALID,0.0509425,VALID,17.058,VALID,79,VALID,0,
2009-08-02, 03:05:01,VALID,916.14,VALID,0,VALID,100,VALID,0,VALID,17.0809,VALID,79,VALID,0,
2009-08-02, 03:06:00,VALID,916.141,VALID,0,VALID,100,VALID,0.0169808,VALID,17.1228,VALID,79,VALID,0,
2009-08-02, 03:07:01,VALID,916.146,VALID,0,VALID,100,VALID,0.0339617,VALID,17.1749,VALID,79,VALID,0,
2009-08-02, 03:08:00,VALID,916.124,VALID,0,VALID,100,VALID,0.0169808,VALID,17.1879,VALID,79,VALID,0,
2009-08-02, 03:09:01,VALID,916.108,VALID,0,VALID,100,VALID,0.0169808,VALID,17.149,VALID,79,VALID,0,
2009-08-02, 03:10:00,VALID,916.089,VALID,0,VALID,100,VALID,0.0169808,VALID,17.1198,VALID,79,VALID,0,
2009-08-02, 03:11:00,VALID,916.062,VALID,0,VALID,100,VALID,0.0339617,VALID,17.0679,VALID,79,VALID,0,
2009-08-02, 03:12:00,VALID,916.056,VALID,0,VALID,100,VALID,-0.0169808,VALID,16.9685,VALID,79,VALID,0,
2009-08-02, 03:13:01,VALID,916.04,VALID,0,VALID,100,VALID,-0.0679233,VALID,16.8648,VALID,91,VALID,0.00218023,
2009-08-02, 03:14:01,VALID,916.045,VALID,0,VALID,100,VALID,-0.0849042,VALID,16.7809,VALID,124,VALID,0,
2009-08-02, 03:15:00,VALID,916.053,VALID,0,VALID,100,VALID,-0.0339617,VALID,16.7967,VALID,138,VALID,0,
2009-08-02, 03:16:00,VALID,916.058,VALID,0,VALID,100,VALID,-0.0679233,VALID,16.8036,VALID,138,VALID,0,
2009-08-02, 03:17:01,VALID,916.082,VALID,0,VALID,100,VALID,-0.0679233,VALID,16.771,VALID,139,VALID,0,
2009-08-02, 03:18:00,VALID,916.085,VALID,0,VALID,100,VALID,-0.0679233,VALID,16.7191,VALID,142,VALID,0,
2009-08-02, 03:19:01,VALID,916.093,VALID,0,VALID,100,VALID,-0.0849042,VALID,16.5959,VALID,143,VALID,0,
2009-08-02, 03:20:00,VALID,916.11,VALID,0,VALID,100,VALID,-0.0169808,VALID,16.4271,VALID,143,VALID,0,
2009-08-02, 03:21:00,VALID,916.104,VALID,0,VALID,100,VALID,-0.0509425,VALID,16.4369,VALID,143,VALID,0,
2009-08-02, 03:22:00,VALID,916.118,VALID,0,VALID,100,VALID,-0.0679233,VALID,16.5373,VALID,143,VALID,0,
2009-08-02, 03:23:01,VALID,916.12,VALID,0,VALID,100,VALID,-0.0509425,VALID,16.5728,VALID,143,VALID,0,
2009-08-02, 03:24:01,VALID,916.123,VALID,0,VALID,100,VALID,-0.101885,VALID,16.5797,VALID,143,VALID,0,
2009-08-02, 03:25:01,VALID,916.118,VALID,0,VALID,100,VALID,-0.0509425,VALID,16.6154,VALID,143,VALID,0,
2009-08-02, 03:26:01,VALID,916.089,VALID,0,VALID,100,VALID,-0.0509425,VALID,16.6899,VALID,143,VALID,0,
2009-08-02, 03:27:01,VALID,916.088,VALID,0,VALID,100,VALID,-0.0679233,VALID,16.7513,VALID,142,VALID,0,
2009-08-02, 03:28:01,VALID,916.058,VALID,0,VALID,100,VALID,-0.0509425,VALID,16.748,VALID,136,VALID,0,
2009-08-02, 03:29:01,VALID,916.054,VALID,0,VALID,100,VALID,-0.0679233,VALID,16.745,VALID,129,VALID,0,
2009-08-02, 03:30:01,VALID,916.056,VALID,0,VALID,100,VALID,-0.0679233,VALID,16.6672,VALID,115,VALID,0,
2009-08-02, 03:31:01,VALID,916.065,VALID,0,VALID,100,VALID,-0.0679233,VALID,16.6636,VALID,132,VALID,0,
2009-08-02, 03:32:01,VALID,916.07,VALID,0,VALID,100,VALID,-0.0509425,VALID,16.6409,VALID,142,VALID,0,
2009-08-02, 03:33:01,VALID,916.075,VALID,0,VALID,100,VALID,-0.0509425,VALID,16.6411,VALID,151,VALID,0,
2009-08-02, 03:34:01,VALID,916.096,VALID,0,VALID,100,VALID,-0.0339617,VALID,16.6473,VALID,164,VALID,0,
2009-08-02, 03:35:00,VALID,916.098,VALID,0,VALID,100,VALID,-0.0169808,VALID,16.6344,VALID,168,VALID,0.00111607,
2009-08-02, 03:36:00,VALID,916.108,VALID,0,VALID,100,VALID,-0.0849042,VALID,16.6249,VALID,156,VALID,0,
2009-08-02, 03:37:00,VALID,916.103,VALID,0,VALID,100,VALID,-0.0679233,VALID,16.6311,VALID,156,VALID,0,
2009-08-02, 03:38:00,VALID,916.091,VALID,0,VALID,100,VALID,-0.0509425,VALID,16.6636,VALID,158,VALID,0.0672554,
2009-08-02, 03:39:00,VALID,916.086,VALID,0,VALID,100,VALID,-0.0679233,VALID,16.6865,VALID,157,VALID,0,
2009-08-02, 03:40:00,VALID,916.056,VALID,0,VALID,100,VALID,0,VALID,16.7059,VALID,154,VALID,0.0740327,
2009-08-02, 03:41:00,VALID,916.049,VALID,0,VALID,100,VALID,-0.0679233,VALID,16.7353,VALID,155,VALID,0,
2009-08-02, 03:42:00,VALID,916.056,VALID,0,VALID,100,VALID,0,VALID,16.7092,VALID,148,VALID,0.0138081,
2009-08-02, 03:43:00,VALID,916.067,VALID,0,VALID,100,VALID,0,VALID,16.686,VALID,151,VALID,0,
2009-08-02, 03:44:00,VALID,916.082,VALID,0,VALID,100,VALID,-0.0509425,VALID,16.6668,VALID,147,VALID,0.150298,
2009-08-02, 03:45:00,VALID,916.078,VALID,0,VALID,100,VALID,-0.0509425,VALID,16.6575,VALID,143,VALID,0.275856,
2009-08-02, 03:46:00,VALID,916.095,VALID,0,VALID,100,VALID,-0.0509425,VALID,16.6411,VALID,142,VALID,0.0308949,
2009-08-02, 03:47:00,VALID,916.105,VALID,0,VALID,100,VALID,-0.0509425,VALID,16.6281,VALID,144,VALID,0.103609,
2009-08-02, 03:48:00,VALID,916.124,VALID,0,VALID,100,VALID,-0.0679233,VALID,16.6476,VALID,143,VALID,0.00409226,
2009-08-02, 03:49:00,VALID,916.156,VALID,0,VALID,100,VALID,-0.0679233,VALID,16.6413,VALID,153,VALID,0.198103,
2009-08-02, 03:50:00,VALID,916.163,VALID,0,VALID,100,VALID,-0.0339617,VALID,16.6508,VALID,152,VALID,0.24343,